Location: Bevreti
(41.7492°N, 44.5850°E)
Time: 12:11:22
(UTC+00:00)

Daily predictions for brighter satellites

Satellite Brightness Start Highest point End
(mag) Time Altitude Azimuth Time Altitude Azimuth Time Altitude Azimuth
Cosmos 44 Rocket 3.6 16:42:10 10° SSW 16:47:20 85° WNW 16:52:37 10° NNE
SL-19 R/B 4.2 16:45:15 10° SSE 16:48:42 70° ENE 16:52:44 10° N
SEDSat Delta rocket 4.4 16:50:01 10° SW 16:52:59 19° S 16:55:55 10° SE
Cosmos 1689 Rocket 2.5 16:52:10 10° N 16:54:53 61° WNW 16:57:36 10° SSW
Ariane Rocket 3.3 16:52:21 10° SE 16:57:14 51° ENE 17:02:08 10° N
ERS-2 2.8 16:54:56 10° NNE 16:58:17 35° E 17:01:38 10° SSE
SL-16 R/B 4.1 16:55:52 10° N 16:59:21 16° NE 17:02:49 10° E
Cosmos 2360 4.3 16:57:47 10° NNW 17:03:30 87° ENE 17:09:11 10° SSE
ATLAS 2AS CENTAUR R/B 3.4 16:58:42 10° SW 17:06:36 75° NW 17:14:24 10° NNE
GENESIS II 4.4 17:02:52 10° NW 17:06:46 71° WSW 17:10:37 10° SSE
USA 186 3.5 17:05:44 10° SSW 17:08:33 31° W 17:11:12 10° NNW
Cosmos 371 Rocket 4.0 17:06:57 10° N 17:11:26 37° ENE 17:15:31 12° SE
Atlas Centaur 2 3.1 17:08:47 10° SW 17:11:35 17° S 17:13:53 11° SE
ATLAS 3B R/B 3.2 17:08:33 10° NNW 17:15:32 56° NE 17:22:11 13° SE
Cosmos 1697 Rocket 3.1 17:11:00 10° NNW 17:16:37 65° WSW 17:22:12 10° S
Cosmos 2279 Rocket 4.2 17:12:28 10° N 17:18:40 78° W 17:24:51 10° S
Cosmos 1437 4.0 17:17:57 10° NNW 17:20:30 34° W 17:23:02 10° SSW
Helios 1A Rocket 4.0 17:18:11 10° S 17:22:03 44° W 17:25:58 10° NNW
Cosmos 1076 Rocket 3.5 17:18:54 10° S 17:23:10 63° E 17:27:29 10° NNE
Cosmos 1833 Rocket 4.3 17:18:29 10° SW 17:23:45 40° WNW 17:29:03 10° N
Cosmos 1271 Rocket 4.4 17:21:48 10° NNE 17:24:43 19° ENE 17:26:40 14° ESE
Cosmos 773 Rocket 4.4 17:19:42 10° SSW 17:24:52 67° WNW 17:30:02 10° NNE
Cosmos 2082 Rocket 2.5 17:24:24 10° SSW 17:30:01 70° WNW 17:35:41 10° NNE
USA 276 4.1 17:28:30 10° NW 17:31:06 23° NNE 17:33:41 10° ENE
Terra 3.9 17:30:18 10° E 17:32:37 14° ENE 17:34:57 10° NNE
OBJECT-B 3.4 17:31:35 10° SW 17:33:55 19° W 17:36:17 10° NW
SPOT 5 4.4 17:32:21 13° E 17:34:28 17° ENE 17:37:18 10° NNE
Cosmos 2278 3.7 17:30:30 10° NNW 17:36:11 77° ENE 17:40:46 16° SSE
Resurs 1-3 4.3 17:35:06 10° S 17:39:22 52° W 17:43:40 10° NNW
Cosmos 1842 Rocket 4.2 17:35:22 10° NNW 17:39:46 58° W 17:44:09 10° S
Meteor 2-8 Rocket 4.4 17:35:27 10° N 17:41:37 78° E 17:47:23 12° SSE
Cosmos 2360 Rocket 4.1 17:39:30 10° N 17:42:57 16° NE 17:46:23 10° E
ERS-1 Rocket 4.3 17:40:35 16° ESE 17:43:16 25° ENE 17:47:19 10° NNE
Nadezhda 4 Rocket 4.0 17:39:42 10° S 17:45:52 89° W 17:52:08 10° N
Cosmos 158 Rocket 3.9 17:40:52 10° S 17:45:55 68° ESE 17:51:10 10° NNE
Cosmos 1633 3.3 17:44:33 10° SSW 17:48:04 53° W 17:51:37 10° N
Cosmos 332 Rocket 4.2 17:44:00 10° N 17:48:46 50° ENE 17:51:36 23° SE
SPOT 3 Rocket 3.6 17:52:48 16° SSE 17:57:05 84° WSW 18:02:20 10° NNW
Landsat 7 4.0 17:53:09 14° S 17:57:12 72° WSW 18:01:58 10° NNW
Spot 2 Rocket 3.9 17:54:25 23° SE 17:57:18 48° ENE 18:02:11 10° N
Cosmos 1606 3.9 17:53:47 10° NNW 17:57:21 40° W 18:00:54 10° SSW
GP-B 3.5 17:55:14 10° NNE 17:59:29 44° E 18:01:19 28° SE
Cosmos 1680 Rocket 4.0 17:57:01 20° SSE 18:00:09 40° ESE 18:05:04 10° NE
MetOp-B 4.1 17:58:47 18° SSE 18:02:48 87° WSW 18:08:12 10° NNW
IGS 5A 4.2 17:59:21 13° S 18:02:54 48° W 18:06:56 10° NNW
Cosmos 1980 Rocket 2.9 17:59:25 10° NW 18:04:51 50° WSW 18:09:17 15° S
Cosmos 1428 Rocket 4.4 18:02:53 16° S 18:07:52 66° E 18:13:56 10° NNE
ISS -3.7 18:05:44 10° NW 18:09:07 70° NNE 18:10:01 44° ESE
CZ-2C R/B 3.6 18:05:30 10° NNE 18:10:02 89° E 18:13:49 14° SSW
Okean 3 Rocket 4.1 18:10:16 33° SE 18:11:28 40° E 18:15:41 10° NNE
Meteor 2-15 4.5 18:06:06 10° N 18:12:10 78° W 18:16:48 18° S
Cosmos 1812 4.1 18:09:32 10° NNE 18:12:41 23° ENE 18:12:57 23° E
USA 245 3.8 18:10:41 25° SSE 18:13:46 87° E 18:18:11 10° NNW
Cosmos 2322 Rocket 2.8 18:10:21 10° NNW 18:15:42 43° ENE 18:18:09 28° ESE
Cosmos 304 Rocket 3.7 18:18:37 10° NNW 18:23:26 82° WSW 18:25:25 35° SSE
Cosmos 1553 Rocket 4.3 18:18:06 10° N 18:23:57 47° ENE 18:26:18 32° SE
Resurs 01 Rocket 3.2 18:20:49 11° SSW 18:24:31 31° W 18:28:29 10° NNW
Cosmos 1933 3.7 18:23:02 10° NNW 18:27:03 61° W 18:28:43 32° SSW
Meteor 2-3 Rocket 4.0 18:22:01 10° SSW 18:27:38 70° W 18:33:22 10° N
Cosmos 2151 4.2 18:24:20 10° SSW 18:28:19 40° WNW 18:32:22 10° N
Gbstr 26 Del rocket 3.2 18:25:34 10° NW 18:29:15 53° NNE 18:30:26 38° E
CARTOSAT-1 3.6 18:32:23 40° S 18:33:52 75° WSW 18:38:12 10° NNW
Cosmos 2084 3.2 18:36:06 61° SE 18:36:22 63° ESE 18:40:28 10° NE
Cosmos 2219 Rocket 4.1 18:33:24 10° N 18:37:01 17° NE 18:39:34 13° E
Cosmos 1624 Rocket 4.5 18:36:01 10° N 18:41:03 47° ENE 18:42:20 38° ESE
COSMOS 2455 4.0 18:42:59 25° E 18:42:59 25° E 18:46:56 10° NE
SL-16 R/B 2.1 18:38:32 10° NNW 18:44:15 88° WSW 18:46:11 43° SSE
Cosmos 1655 Rocket 4.5 18:42:55 37° SE 18:44:33 44° E 18:50:32 10° NNE
Cosmos 1862 3.4 18:45:49 56° E 18:45:49 56° E 18:49:31 10° NNE
Cosmos 2237 4.4 18:42:27 10° NNW 18:48:07 59° ENE 18:49:46 43° ESE
Cosmos 1809 Rocket 4.4 18:46:03 29° S 18:49:22 90° S 18:55:33 10° N
ARIANE 5 R/B 2.9 18:49:18 43° SSW 18:50:33 61° W 18:54:59 10° NNW
Cosmos 1515 Rocket 4.0 18:48:08 10° N 18:52:24 45° ENE 18:52:27 45° E
Meteor 2-6 Rocket 4.1 18:47:50 10° N 18:53:14 68° E 18:54:27 51° SE
Cosmos 1782 3.4 18:49:48 10° NNW 18:53:42 50° W 18:54:27 44° SW
S3M 4.3 18:47:57 10° N 18:54:13 55° ENE 18:56:02 42° SE
H-2A R/B 3.9 18:50:48 10° NNE 18:54:22 46° ENE 18:54:22 46° ENE
Cosmos 1271 Rocket 4.3 18:57:12 10° NNW 19:00:43 30° W 19:01:48 26° WSW
Cosmos 1766 Rocket 4.2 19:00:35 35° SW 19:02:05 52° W 19:06:23 10° N
ATLAS 5 CENTAUR R/B 4.3 18:59:52 10° N 19:03:40 19° NE 19:07:42 11° E
ATLAS 3B R/B 3.9 18:59:42 10° NW 19:05:59 34° WSW 19:09:26 23° SSW
Cosmos 1151 Rocket 3.6 19:01:51 10° NNW 19:06:04 51° W 19:06:50 45° SW
USA 267 3.2 19:00:21 10° NE 19:06:51 63° SE 19:11:56 17° SSW
BREEZE M DEB (TANK) 4.0 19:03:30 10° WSW 19:07:28 90° NW 19:34:35 10° ENE
USA 276 3.8 19:04:27 10° WNW 19:06:18 32° WNW 19:06:18 32° WNW
Terra 1.8 19:09:03 60° SSW 19:09:46 72° WSW 19:14:32 10° NNW
Cosmos 1328 Rocket 3.8 19:05:45 10° NNW 19:10:09 62° W 19:10:36 58° SW
SPOT 5 3.3 19:11:34 40° SW 19:12:13 43° W 19:16:23 10° NNW
NOSS 2-1 (C) 4.1 19:13:37 39° N 19:13:37 39° N 19:16:08 10° NNE
Meteor 2-21 Rocket 4.4 19:12:42 46° S 19:14:45 90° W 19:20:58 10° N
Meteor 1-27 Rocket 4.0 19:13:14 10° N 19:18:45 52° ENE 19:19:24 50° E
NOSS 2-1 (D) 4.3 19:21:05 37° NNW 19:21:05 37° NNW 19:23:46 10° NNE
Cosmos 2056 Rocket 3.4 19:15:51 10° NNW 19:21:13 79° WSW 19:21:49 68° SSW
ERS-1 Rocket 3.9 19:20:36 34° SW 19:21:50 39° W 19:26:33 10° NNW
CZ-3B R/B 3.9 19:18:19 10° NW 19:27:17 34° N 19:29:18 21° ENE
Cosmos 2360 Rocket 2.0 19:22:03 10° NNW 19:27:43 87° WSW 19:28:22 71° SSE
IRIDIUM 104 4.5 19:26:17 10° N 19:31:22 57° E 19:31:22 57° E
SL-27 R/B 3.9 19:32:56 37° NW 19:32:56 37° NW 19:35:48 10° N
Cosmos 1833 4.3 19:32:15 45° SW 19:34:03 74° WNW 19:39:52 10° NNE
Cosmos 2333 Rocket 2.4 19:32:32 10° NNW 19:38:06 56° ENE 19:38:39 53° E
USA 234 4.2 19:35:23 20° E 19:39:34 43° NNE 19:45:40 10° NW
Meteor 1-10 Rocket 4.3 19:34:12 10° NNW 19:39:41 64° W 19:40:22 58° SW
Cosmos 972 Rocket 4.0 19:40:02 69° E 19:40:02 69° E 19:44:50 10° NNE
IRIDIUM 114 4.3 19:35:22 10° N 19:40:29 69° ENE 19:40:29 69° ENE
Cosmos 1500 Rocket 4.0 19:45:29 61° NW 19:45:29 61° NW 19:49:23 10° N
Cosmos 2322 3.8 19:42:48 10° NNW 19:48:31 64° ENE 19:48:53 63° E
BREEZE-M DEB (TANK) 3.8 19:45:29 10° WNW 19:48:25 30° NNW 19:48:25 30° NNW
COBE Rocket 4.0 19:50:09 63° NNE 19:50:09 63° NNE 19:54:14 10° N
IRIDIUM 103 4.2 19:44:30 10° N 19:49:37 83° NE 19:49:37 83° NE
Cosmos 2297 Rocket 4.2 19:53:37 15° ENE 19:53:37 15° ENE 19:55:24 10° ENE
Cosmos 292 Rocket 4.2 19:51:03 10° NNW 19:55:11 55° WNW 19:55:11 55° WNW
Cosmos 2237 Rocket 3.9 19:54:23 10° N 19:58:46 22° NE 20:00:27 20° ENE
Cosmos 2322 Rocket 3.5 19:54:50 10° NW 19:59:30 27° WSW 19:59:58 27° WSW
Lacrosse 5 4.3 20:03:38 11° ENE 20:03:38 11° ENE 20:03:49 10° ENE
Cosmos 2285 Rocket 3.9 19:56:00 10° NNW 20:02:18 74° ENE 20:02:52 69° ESE
Cosmos 2227 Rocket 4.3 20:05:17 14° ENE 20:05:17 14° ENE 20:06:50 10° ENE
Meteor 1-25 Rocket 4.2 20:05:42 70° ENE 20:05:42 70° ENE 20:10:57 10° NNE
Cosmos 2315 Rocket 3.9 20:00:27 10° N 20:06:46 77° W 20:07:26 70° SSW
IRIDIUM 106 4.5 20:02:49 10° N 20:07:50 66° WNW 20:07:50 66° WNW
Cosmos 494 Rocket 4.3 20:13:17 57° NE 20:13:17 57° NE 20:17:26 10° NNE
Sich 1 4.0 20:14:53 46° N 20:14:53 46° N 20:18:01 10° N
Cosmos 489 Rocket 4.3 20:14:36 81° S 20:14:57 87° ESE 20:21:21 10° NNE
Cosmos 1633 Rocket 4.5 20:18:58 32° NE 20:18:58 32° NE 20:21:34 10° NNE
Cosmos 1048 Rocket 4.2 20:19:12 67° NNW 20:19:12 67° NNW 20:23:52 10° NNE
Cosmos 2219 Rocket 2.2 20:16:03 10° NNW 20:21:16 75° WNW 20:21:16 75° WNW
Meteor 1-19 Rocket 4.3 20:19:34 10° N 20:24:49 68° NE 20:24:49 68° NE
NOSS 3-1 (C) 4.1 20:17:51 10° NW 20:25:34 74° WSW 20:27:08 61° S
COSMOS 2455 3.4 20:26:05 42° WSW 20:27:39 53° NW 20:33:33 10° NNE
Cosmos 2228 Rocket 4.5 20:25:33 10° NNW 20:28:36 33° WNW 20:28:36 33° WNW
Meteor 2-4 Rocket 4.3 20:28:22 10° N 20:34:07 48° ENE 20:34:09 48° ENE
COSMOS 2428 2.8 20:30:24 10° NNW 20:35:35 70° WNW 20:35:35 70° WNW
Cosmos 1745 Rocket 4.2 20:39:03 56° E 20:39:03 56° E 20:45:02 10° NNE
USA 229 DEB 3.8 20:32:16 10° NW 20:39:42 90° E 20:40:52 68° SE
USA 229 3.8 20:32:21 10° NW 20:39:48 89° ENE 20:40:59 68° SE
APEX 4.3 20:41:32 76° NE 20:41:32 76° NE 20:47:30 10° NNE
ATLAS 5 CENTAUR R/B 2.3 20:43:21 10° NNW 20:49:04 78° NE 20:49:10 77° ENE
USA 267 4.2 20:43:32 10° NE 20:49:41 45° NNW 20:55:50 10° W
Cosmos 1386 Rocket 4.5 20:54:36 75° E 20:54:38 75° E 21:01:03 10° N
Thor Agena Rocket 4.3 20:49:45 10° NNE 20:53:32 45° NE 20:53:32 45° NE
ALOS 2 4.0 20:56:33 34° NW 20:56:33 34° NW 20:59:18 10° NNW
Cosmos 2219 3.9 20:58:44 46° ENE 20:58:44 46° ENE 21:03:16 10° NNE
Nadezhda 1 Rocket 3.9 20:53:15 10° N 20:59:41 78° E 20:59:50 78° E
NOSS 3-1 (A) 4.0 20:52:30 10° NW 21:00:13 73° WSW 21:01:25 64° S
Cosmos 1980 3.8 21:14:29 10° NNW 21:19:31 71° NNW 21:19:31 71° NNW
Meteor 2-17 Rocket 4.3 21:21:17 84° NW 21:21:17 84° NW 21:27:13 10° N
Cosmos 2333 Rocket 4.0 21:17:48 10° NW 21:20:38 19° W 21:20:38 19° W
USA 234 3.2 21:22:42 66° WSW 21:22:42 66° WSW 21:28:53 10° NW
SL-16 R/B 4.5 21:21:13 13° E 21:24:50 21° ENE 21:29:16 10° NNE
CZ-2D R/B 4.1 21:24:05 10° NE 21:27:43 18° E 21:27:45 18° E
NOSS 0 Rocket 4.4 21:26:53 10° NW 21:32:03 47° W 21:32:03 47° W
Cosmos 2297 Rocket 2.4 21:35:24 65° NW 21:35:24 65° NW 21:40:52 10° NNE
Cosmos 909 Rocket 4.0 21:34:51 79° S 21:35:15 84° ESE 21:42:45 10° NNE
NOSS 2-2 (E) 4.5 21:34:56 10° NW 21:40:43 86° SW 21:41:15 77° SSE
Lacrosse 5 2.4 21:42:49 56° NNW 21:42:49 56° NNW 21:47:24 10° NE
Cosmos 2237 Rocket 2.6 21:37:39 10° NNW 21:42:14 52° WNW 21:42:14 52° WNW
Okean 1-7 4.3 21:39:29 10° N 21:42:04 36° NNW 21:42:04 36° NNW
Cosmos 2181 Rocket 4.1 21:39:09 10° N 21:45:27 65° E 21:46:02 62° ESE
Cosmos 2227 Rocket 2.3 21:47:05 69° NW 21:47:05 69° NW 21:52:32 10° NNE
Timation 1 Rocket 4.3 21:57:58 74° WNW 21:58:05 75° WNW 22:04:07 10° NNE
Meteor 1-11 Rocket 3.7 21:58:50 70° NW 21:58:50 70° NW 22:04:03 10° N
CZ-4 R/B 4.2 21:57:09 10° NNE 22:01:35 64° ENE 22:01:35 64° ENE
ADEOS Rocket 4.4 22:00:11 19° ESE 22:02:54 28° ENE 22:07:28 10° N
NOSS 2-2 (C) 4.5 21:59:12 10° NW 22:04:54 73° WSW 22:05:05 72° SW
Cosmos 2263 Rocket 3.4 22:04:54 30° ESE 22:05:01 30° ESE 22:09:53 10° NE
SL-16 R/B 2.1 22:04:57 10° NNW 22:10:38 79° ENE 22:10:53 77° E
BREEZE-M DEB (TANK) 3.9 22:05:12 10° W 22:11:41 50° N 22:14:45 10° ENE
Cosmos 1992 Rocket 4.3 22:07:36 10° NNW 22:12:00 60° NW 22:12:00 60° NW
Resurs 1-4 Rocket 2.7 22:08:56 10° NNE 22:14:02 46° E 22:14:09 46° ESE
SL-8 R/B 4.3 22:15:39 50° ENE 22:15:39 50° ENE 22:19:13 10° ENE
Cosmos 407 Rocket 4.4 22:14:44 37° ESE 22:14:44 37° ESE 22:19:33 10° NE
CZ-4C R/B 3.5 22:18:16 10° NNW 22:25:28 58° NE 22:33:46 10° SE
Cosmos 2221 Rocket 4.0 22:23:07 10° N 22:27:13 64° NE 22:27:13 64° NE
ATLAS CENTAUR R/B 3.1 22:31:18 24° ENE 22:31:18 24° ENE 22:33:26 10° NE
ARGOS Delta rocket 4.4 22:26:58 10° N 22:30:46 44° NW 22:30:46 44° NW
Cosmos 1743 4.3 22:33:27 29° NNW 22:33:27 29° NNW 22:35:41 10° N
ATLAS 5 CENTAUR R/B 4.3 22:29:07 10° WNW 22:30:39 15° W 22:30:39 15° W
MOZ.5/SAFIR/RUBIN 5/SL-8 4.1 22:36:02 57° NW 22:36:02 57° NW 22:40:00 10° NNW
ASTEX 1 3.9 22:36:52 49° WNW 22:36:52 49° WNW 22:41:00 10° NNW
Cosmos 1238 Rocket 4.3 22:37:12 28° ENE 22:37:12 28° ENE 22:39:35 10° NNE
Cosmos 2344 3.7 22:35:09 46° SSE 22:37:01 58° ESE 22:44:24 10° NE
Meteor 1-23 Rocket 4.4 22:33:39 10° NNW 22:39:16 58° W 22:39:16 58° W
ADEOS II 2.9 22:39:56 10° NNE 22:44:54 41° E 22:46:01 36° SE
Cosmos 1943 4.5 22:40:18 10° N 22:45:39 39° ENE 22:50:56 10° SE
NOSS 3-3 (A) 3.7 22:45:27 64° S 22:46:13 72° ESE 22:52:34 10° NE
NOSS 3-3 (C) 3.7 22:45:35 63° SSE 22:46:19 71° ESE 22:52:38 10° NE
Cosmos 2184 Rocket 3.9 22:45:26 60° SW 22:46:26 71° W 22:52:45 10° N
Cosmos 1908 Rocket 4.4 22:49:39 40° ESE 22:49:56 40° E 22:54:00 10° NNE
Cosmos 1733 Rocket 3.3 22:52:41 60° NW 22:52:41 60° NW 22:56:41 10° N
Cosmos 1461 3.4 22:52:54 59° NW 22:52:54 59° NW 22:57:11 10° NNE
Cosmos 2154 Rocket 3.9 22:53:05 57° S 22:54:28 88° W 23:00:43 10° N
Cosmos 1140 Rocket 3.3 22:55:51 71° S 22:56:25 82° ESE 23:01:41 10° NNE
Helios 1A 4.4 22:59:46 27° WNW 22:59:46 27° WNW 23:02:10 10° NNW
Helios 1B rocket 2.5 22:54:48 10° NNE 22:58:42 70° ENE 22:58:42 70° ENE
Cosmos 44 3.6 22:54:25 10° NNW 22:59:39 68° NE 23:02:03 30° SE
NPP 3.5 22:56:24 10° NNE 23:01:50 84° WNW 23:02:44 63° SSW
Cosmos 2074 Rocket 4.3 23:03:57 43° WSW 23:05:05 48° WNW 23:11:05 10° N
Cosmos 1707 3.1 23:02:48 10° N 23:06:35 58° E 23:06:35 58° E
SL-16 R/B 2.4 23:06:19 50° SSW 23:07:50 68° WSW 23:14:01 10° NNW
CZ-2D R/B 2.3 23:02:47 10° N 23:08:07 60° WNW 23:09:04 52° WSW
Cosmos 1190 Rocket 3.9 23:09:57 61° SSW 23:10:55 88° ESE 23:16:17 10° NNE
Cosmos 1844 Rocket 4.5 23:13:34 15° SE 23:16:41 24° E 23:21:05 10° NE
Iridium 4 Rocket 3.7 23:11:26 10° N 23:17:09 79° W 23:18:57 46° SSW
BREEZE-M DEB (TANK) 4.2 23:11:10 28° WSW 23:17:27 88° SSE 23:21:27 10° ENE
Milstar 3 4.2 23:18:59 20° SSE 23:18:59 20° SSE 23:23:11 10° ESE
Cosmos 1356 Rocket 3.3 23:19:02 68° WNW 23:19:02 68° WNW 23:22:52 10° N
SL-8 Rocket 4.3 23:18:11 28° SSE 23:21:23 60° E 23:27:26 10° NNE
Cosmos 1954 Rocket 4.1 23:21:13 45° S 23:22:47 70° ESE 23:28:05 10° NNE
Cosmos 1674 4.0 23:20:20 10° N 23:23:57 38° ENE 23:25:38 24° SE
AQUA 3.9 23:20:11 10° N 23:24:51 59° WNW 23:25:37 52° WSW
MINOTAUR 4 R/B 4.1 23:25:27 68° ESE 23:25:40 71° ENE 23:29:14 10° N
Lacrosse 5 4.1 23:22:41 10° WNW 23:26:17 19° NNW 23:29:54 10° NNE
IDEFIX/ARIANE 42P 3.0 23:21:50 10° NNE 23:26:56 55° E 23:29:14 31° SSE
SL-24 R/B - RUBIN 2 4.0 23:26:24 10° NNW 23:31:21 65° NE 23:35:47 10° SE
Cosmos 2227 Rocket 4.5 23:29:37 10° WNW 23:32:01 13° NW 23:34:25 10° NNW
Cosmos 1782 Rocket 3.7 23:31:48 43° SSE 23:33:04 66° E 23:37:26 10° NNE
ARIANE 5 R/B 4.2 23:28:56 10° NE 23:33:26 29° E 23:37:33 12° SSE
DELTA 2 DEB (DPAF) 4.3 23:32:04 28° SSE 23:34:21 69° ENE 23:38:47 10° N
Okean 2 3.9 23:32:42 10° NNW 23:36:28 42° W 23:36:28 42° W
Cosmos 1603 3.6 23:32:43 10° NNW 23:38:21 81° WSW 23:42:48 17° SSE
Cosmos 1975 4.1 23:39:31 27° WNW 23:39:31 27° WNW 23:42:54 10° NNW
Orbus 7S? 4.4 23:41:04 30° SW 23:45:28 90° ESE 23:49:38 10° NE
ADEOS Rocket 3.3 23:47:08 35° SW 23:48:18 38° W 23:53:24 10° NNW
Cosmos 2263 Rocket 2.9 23:46:36 29° WSW 23:48:45 40° WNW 23:54:08 10° N
USA 290 3.1 23:49:44 10° N 23:52:54 48° ENE 23:55:36 13° SE
Resurs 1-4 Rocket 3.5 23:49:24 10° NNW 23:53:32 24° WNW 23:55:13 20° W
SL-16 R/B 4.1 23:51:11 10° WNW 23:52:42 13° W 23:52:42 13° W
